TimeMST,TemperatureF,Dew PointF,Humidity,Sea Level PressureIn,VisibilityMPH,Wind Direction,Wind SpeedMPH,Gust SpeedMPH,PrecipitationIn,Events,Conditions,WindDirDegrees,DateUTC
12:53 AM,36.0,25.0,64,30.32,10.0,Calm,Calm,-,N/A,,Clear,0,2012-11-06 07:53:00
1:53 AM,33.1,24.1,70,30.33,10.0,Calm,Calm,-,N/A,,Clear,0,2012-11-06 08:53:00
2:53 AM,32.0,24.1,73,30.33,10.0,Calm,Calm,-,N/A,,Clear,0,2012-11-06 09:53:00
3:53 AM,28.9,23.0,78,30.33,10.0,Calm,Calm,-,N/A,,Clear,0,2012-11-06 10:53:00
4:53 AM,32.0,24.1,73,30.35,10.0,Calm,Calm,-,N/A,,Clear,0,2012-11-06 11:53:00
5:53 AM,30.0,23.0,75,30.37,10.0,Calm,Calm,-,N/A,,Clear,0,2012-11-06 12:53:00
6:53 AM,28.0,21.9,78,30.41,10.0,SSW,3.5,-,N/A,,Clear,210,2012-11-06 13:53:00
7:53 AM,35.1,26.1,70,30.41,10.0,Calm,Calm,-,N/A,,Clear,0,2012-11-06 14:53:00
8:53 AM,39.9,27.0,60,30.41,10.0,Calm,Calm,-,N/A,,Clear,0,2012-11-06 15:53:00
9:53 AM,46.0,28.0,50,30.38,10.0,Calm,Calm,-,N/A,,Clear,0,2012-11-06 16:53:00
10:53 AM,51.1,28.0,41,30.35,10.0,Calm,Calm,-,N/A,,Clear,0,2012-11-06 17:53:00
11:53 AM,57.9,28.0,32,30.29,10.0,East,3.5,-,N/A,,Clear,80,2012-11-06 18:53:00
12:53 PM,61.0,27.0,27,30.24,10.0,Calm,Calm,-,N/A,,Clear,0,2012-11-06 19:53:00
1:53 PM,64.9,27.0,24,30.21,10.0,Calm,Calm,-,N/A,,Clear,0,2012-11-06 20:53:00
2:53 PM,66.9,26.1,21,30.18,10.0,Calm,Calm,-,N/A,,Clear,0,2012-11-06 21:53:00
3:53 PM,68.0,25.0,20,30.18,10.0,Calm,Calm,-,N/A,,Clear,0,2012-11-06 22:53:00
4:53 PM,59.0,25.0,27,30.20,10.0,SSW,4.6,-,N/A,,Clear,210,2012-11-06 23:53:00
5:53 PM,52.0,24.1,34,30.25,10.0,South,4.6,-,N/A,,Clear,180,2012-11-07 00:53:00
6:53 PM,48.0,24.1,39,30.28,10.0,South,4.6,-,N/A,,Clear,180,2012-11-07 01:53:00
7:53 PM,46.0,23.0,40,30.26,10.0,ENE,3.5,-,N/A,,Clear,60,2012-11-07 02:53:00
8:53 PM,41.0,23.0,49,30.27,10.0,Calm,Calm,-,N/A,,Clear,0,2012-11-07 03:53:00
9:53 PM,39.9,23.0,51,30.26,10.0,Calm,Calm,-,N/A,,Clear,0,2012-11-07 04:53:00
10:53 PM,36.0,21.9,57,30.26,10.0,ESE,3.5,-,N/A,,Clear,110,2012-11-07 05:53:00
11:53 PM,35.1,21.0,57,30.24,10.0,SW,3.5,-,N/A,,Clear,220,2012-11-07 06:53:00